Time,TemperatureF,DewpointF,PressureIn,WindDirection,WindDirectionDegrees,WindSpeedMPH,WindSpeedGustMPH,Humidity,HourlyPrecipIn,Conditions,Clouds,dailyrainin,SoftwareType,DateUTC
2014-01-28 00:01:00,14.0,-3.9,30.17,East,85,2.0,5.0,44,0.00,,,0.00,Wunderground v.1.15,2014-01-28 05:01:00,
2014-01-28 00:02:00,13.8,-4.6,30.17,ESE,117,2.0,5.0,43,0.00,,,0.00,Wunderground v.1.15,2014-01-28 05:02:00,
2014-01-28 00:03:00,13.8,-4.6,30.17,East,83,3.0,5.0,43,0.00,,,0.00,Wunderground v.1.15,2014-01-28 05:03:00,
2014-01-28 00:04:00,13.8,-4.6,30.17,NE,51,3.0,5.0,43,0.00,,,0.00,Wunderground v.1.15,2014-01-28 05:04:00,
2014-01-28 00:09:00,13.8,-4.6,30.17,ENE,71,3.0,6.0,43,0.00,,,0.00,Wunderground v.1.15,2014-01-28 05:09:00,
2014-01-28 00:11:00,13.8,-4.1,30.17,ENE,66,2.0,2.0,44,0.00,,,0.00,Wunderground v.1.15,2014-01-28 05:11:00,
2014-01-28 00:17:00,13.5,-4.4,30.18,ENE,68,2.0,3.0,44,0.00,,,0.00,Wunderground v.1.15,2014-01-28 05:17:00,
2014-01-28 00:21:00,13.3,-4.1,30.18,ENE,66,2.0,2.0,45,0.00,,,0.00,Wunderground v.1.15,2014-01-28 05:21:00,
2014-01-28 00:26:00,13.1,-4.3,30.18,NE,52,2.0,3.0,45,0.00,,,0.00,Wunderground v.1.15,2014-01-28 05:26:00,
2014-01-28 00:32:00,12.8,-4.6,30.18,NE,56,2.0,2.0,45,0.00,,,0.00,Wunderground v.1.15,2014-01-28 05:32:00,
2014-01-28 00:37:00,12.8,-4.6,30.18,NE,56,2.0,2.0,45,0.00,,,0.00,Wunderground v.1.15,2014-01-28 05:37:00,
2014-01-28 00:42:00,12.6,-4.3,30.18,East,88,1.0,2.0,46,0.00,,,0.00,Wunderground v.1.15,2014-01-28 05:42:00,
2014-01-28 00:48:00,12.1,-4.3,30.19,ENE,65,1.0,2.0,47,0.00,,,0.00,Wunderground v.1.15,2014-01-28 05:48:00,
2014-01-28 00:53:00,11.9,-4.9,30.19,ENE,76,1.0,2.0,46,0.00,,,0.00,Wunderground v.1.15,2014-01-28 05:53:00,
2014-01-28 00:59:00,11.7,-4.7,30.19,NE,52,1.0,2.0,47,0.00,,,0.00,Wunderground v.1.15,2014-01-28 05:59:00,
2014-01-28 01:04:00,11.6,-4.8,30.20,NE,49,0.0,5.0,47,0.00,,,0.00,Wunderground v.1.15,2014-01-28 06:04:00,
2014-01-28 01:10:00,11.4,-5.4,30.20,North,8,1.0,1.0,46,0.00,,,0.00,Wunderground v.1.15,2014-01-28 06:10:00,
2014-01-28 01:15:00,11.4,-5.9,30.20,ESE,107,2.0,6.0,45,0.00,,,0.00,Wunderground v.1.15,2014-01-28 06:15:00,
2014-01-28 01:21:00,11.4,-6.3,30.20,East,95,2.0,2.0,44,0.00,,,0.00,Wunderground v.1.15,2014-01-28 06:21:00,
2014-01-28 01:26:00,11.4,-7.3,30.20,East,79,2.0,6.0,42,0.00,,,0.00,Wunderground v.1.15,2014-01-28 06:26:00,
2014-01-28 01:31:00,11.6,-7.1,30.22,NE,45,3.0,3.0,42,0.00,,,0.00,Wunderground v.1.15,2014-01-28 06:31:00,
2014-01-28 01:37:00,11.7,-8.0,30.22,ESE,102,3.0,6.0,40,0.00,,,0.00,Wunderground v.1.15,2014-01-28 06:37:00,
2014-01-28 01:42:00,11.7,-8.5,30.22,East,83,3.0,5.0,39,0.00,,,0.00,Wunderground v.1.15,2014-01-28 06:42:00,
2014-01-28 01:47:00,11.7,-8.0,30.23,NE,41,2.0,5.0,40,0.00,,,0.00,Wunderground v.1.15,2014-01-28 06:47:00,
2014-01-28 01:52:00,11.6,-8.6,30.23,ENE,75,2.0,5.0,39,0.00,,,0.00,Wunderground v.1.15,2014-01-28 06:52:00,
2014-01-28 01:58:00,11.6,-9.7,30.23,ENE,76,3.0,5.0,37,0.00,,,0.00,Wunderground v.1.15,2014-01-28 06:58:00,
2014-01-28 02:03:00,11.4,-9.3,30.23,North,353,3.0,3.0,38,0.00,,,0.00,Wunderground v.1.15,2014-01-28 07:03:00,
2014-01-28 02:09:00,11.4,-9.3,30.23,SE,134,2.0,5.0,38,0.00,,,0.00,Wunderground v.1.15,2014-01-28 07:09:00,
2014-01-28 02:14:00,11.2,-10.1,30.23,NE,42,3.0,6.0,37,0.00,,,0.00,Wunderground v.1.15,2014-01-28 07:14:00,
2014-01-28 02:19:00,11.1,-9.6,30.24,North,0,2.0,6.0,38,0.00,,,0.00,Wunderground v.1.15,2014-01-28 07:19:00,
2014-01-28 02:25:00,10.9,-9.8,30.24,ESE,103,2.0,2.0,38,0.00,,,0.00,Wunderground v.1.15,2014-01-28 07:25:00,
2014-01-28 02:31:00,10.7,-10.0,30.25,NE,55,3.0,3.0,38,0.00,,,0.00,Wunderground v.1.15,2014-01-28 07:31:00,
2014-01-28 02:36:00,10.5,-10.1,30.25,ESE,112,3.0,8.0,38,0.00,,,0.00,Wunderground v.1.15,2014-01-28 07:36:00,
2014-01-28 02:42:00,10.5,-9.6,30.25,NE,49,3.0,3.0,39,0.00,,,0.00,Wunderground v.1.15,2014-01-28 07:42:00,
2014-01-28 02:47:00,10.4,-9.7,30.25,East,80,3.0,3.0,39,0.00,,,0.00,Wunderground v.1.15,2014-01-28 07:47:00,
2014-01-28 02:52:00,10.2,-10.4,30.25,East,99,2.0,3.0,38,0.00,,,0.00,Wunderground v.1.15,2014-01-28 07:52:00,
2014-01-28 02:58:00,10.0,-10.6,30.25,ENE,69,3.0,5.0,38,0.00,,,0.00,Wunderground v.1.15,2014-01-28 07:58:00,
2014-01-28 03:03:00,10.0,-10.6,30.25,NE,56,4.0,5.0,38,0.00,,,0.00,Wunderground v.1.15,2014-01-28 08:03:00,
2014-01-28 03:09:00,9.7,-10.9,30.25,North,0,4.0,5.0,38,0.00,,,0.00,Wunderground v.1.15,2014-01-28 08:09:00,
2014-01-28 03:15:00,9.5,-11.1,30.26,ENE,75,4.0,5.0,38,0.00,,,0.00,Wunderground v.1.15,2014-01-28 08:15:00,
2014-01-28 03:20:00,9.3,-10.7,30.26,North,8,4.0,7.0,39,0.00,,,0.00,Wunderground v.1.15,2014-01-28 08:20:00,
2014-01-28 03:25:00,9.3,-11.2,30.26,East,97,4.0,7.0,38,0.00,,,0.00,Wunderground v.1.15,2014-01-28 08:25:00,
2014-01-28 03:31:00,9.3,-10.2,30.27,ESE,106,4.0,4.0,40,0.00,,,0.00,Wunderground v.1.15,2014-01-28 08:31:00,
2014-01-28 03:36:00,9.2,-10.8,30.27,NE,34,3.0,6.0,39,0.00,,,0.00,Wunderground v.1.15,2014-01-28 08:36:00,
2014-01-28 03:41:00,9.2,-10.3,30.27,ESE,116,4.0,4.0,40,0.00,,,0.00,Wunderground v.1.15,2014-01-28 08:41:00,
2014-01-28 03:47:00,9.0,-10.0,30.28,ESE,104,3.0,10.0,41,0.00,,,0.00,Wunderground v.1.15,2014-01-28 08:47:00,
2014-01-28 03:52:00,8.8,-10.7,30.28,East,82,3.0,3.0,40,0.00,,,0.00,Wunderground v.1.15,2014-01-28 08:52:00,
2014-01-28 03:57:00,8.8,-10.7,30.28,ESE,119,3.0,6.0,40,0.00,,,0.00,Wunderground v.1.15,2014-01-28 08:57:00,
2014-01-28 04:02:00,8.6,-11.3,30.29,East,79,3.0,4.0,39,0.00,,,0.00,Wunderground v.1.15,2014-01-28 09:02:00,
2014-01-28 04:08:00,8.6,-11.9,30.29,NE,52,4.0,8.0,38,0.00,,,0.00,Wunderground v.1.15,2014-01-28 09:08:00,
2014-01-28 04:13:00,8.6,-11.3,30.29,NE,56,3.0,3.0,39,0.00,,,0.00,Wunderground v.1.15,2014-01-28 09:13:00,
2014-01-28 04:19:00,8.4,-11.5,30.29,NNE,24,1.0,4.0,39,0.00,,,0.00,Wunderground v.1.15,2014-01-28 09:19:00,
2014-01-28 04:24:00,8.4,-12.0,30.29,NNE,21,1.0,3.0,38,0.00,,,0.00,Wunderground v.1.15,2014-01-28 09:24:00,
2014-01-28 04:29:00,8.4,-11.5,30.29,NNW,343,1.0,3.0,39,0.00,,,0.00,Wunderground v.1.15,2014-01-28 09:29:00,
2014-01-28 04:35:00,8.3,-11.6,30.31,ENE,69,1.0,2.0,39,0.00,,,0.00,Wunderground v.1.15,2014-01-28 09:35:00,
2014-01-28 04:40:00,8.3,-11.6,30.31,ENE,71,1.0,2.0,39,0.00,,,0.00,Wunderground v.1.15,2014-01-28 09:40:00,
2014-01-28 04:45:00,8.3,-10.6,30.31,ENE,71,1.0,2.0,41,0.00,,,0.00,Wunderground v.1.15,2014-01-28 09:45:00,
2014-01-28 04:50:00,8.1,-11.8,30.31,North,0,3.0,3.0,39,0.00,,,0.00,Wunderground v.1.15,2014-01-28 09:50:00,
2014-01-28 04:55:00,8.1,-11.3,30.31,NE,52,4.0,7.0,40,0.00,,,0.00,Wunderground v.1.15,2014-01-28 09:55:00,
2014-01-28 05:01:00,7.9,-11.0,30.32,East,88,3.0,3.0,41,0.00,,,0.00,Wunderground v.1.15,2014-01-28 10:01:00,
2014-01-28 05:07:00,7.7,-11.6,30.32,ENE,62,3.0,6.0,40,0.00,,,0.00,Wunderground v.1.15,2014-01-28 10:07:00,
2014-01-28 05:12:00,7.6,-11.2,30.32,East,93,2.0,3.0,41,0.00,,,0.00,Wunderground v.1.15,2014-01-28 10:12:00,
2014-01-28 05:18:00,7.4,-11.4,30.34,ENE,61,2.0,3.0,41,0.00,,,0.00,Wunderground v.1.15,2014-01-28 10:18:00,
2014-01-28 05:23:00,7.4,-10.9,30.34,North,0,1.0,2.0,42,0.00,,,0.00,Wunderground v.1.15,2014-01-28 10:23:00,
2014-01-28 05:29:00,7.4,-10.9,30.34,ENE,71,1.0,3.0,42,0.00,,,0.00,Wunderground v.1.15,2014-01-28 10:29:00,
2014-01-28 05:35:00,7.2,-11.1,30.34,SSE,154,2.0,3.0,42,0.00,,,0.00,Wunderground v.1.15,2014-01-28 10:35:00,
2014-01-28 05:40:00,7.2,-10.6,30.34,East,90,2.0,5.0,43,0.00,,,0.00,Wunderground v.1.15,2014-01-28 10:40:00,
2014-01-28 05:45:00,7.0,-11.3,30.35,East,85,2.0,6.0,42,0.00,,,0.00,Wunderground v.1.15,2014-01-28 10:45:00,
2014-01-28 05:50:00,7.0,-11.3,30.35,ENE,76,2.0,2.0,42,0.00,,,0.00,Wunderground v.1.15,2014-01-28 10:50:00,
2014-01-28 05:56:00,6.9,-11.4,30.35,ENE,75,2.0,5.0,42,0.00,,,0.00,Wunderground v.1.15,2014-01-28 10:56:00,
2014-01-28 06:01:00,6.9,-11.4,30.37,ENE,61,2.0,5.0,42,0.00,,,0.00,Wunderground v.1.15,2014-01-28 11:01:00,
2014-01-28 06:07:00,6.9,-10.9,30.37,ENE,65,2.0,6.0,43,0.00,,,0.00,Wunderground v.1.15,2014-01-28 11:07:00,
2014-01-28 06:12:00,6.9,-10.9,30.37,NNE,24,2.0,3.0,43,0.00,,,0.00,Wunderground v.1.15,2014-01-28 11:12:00,
2014-01-28 06:18:00,6.7,-11.6,30.37,ENE,58,2.0,7.0,42,0.00,,,0.00,Wunderground v.1.15,2014-01-28 11:18:00,
2014-01-28 06:23:00,6.7,-11.6,30.37,ENE,69,1.0,2.0,42,0.00,,,0.00,Wunderground v.1.15,2014-01-28 11:23:00,
2014-01-28 06:29:00,6.7,-11.1,30.37,East,99,1.0,3.0,43,0.00,,,0.00,Wunderground v.1.15,2014-01-28 11:29:00,
2014-01-28 06:34:00,6.5,-11.3,30.36,East,79,2.0,5.0,43,0.00,,,0.00,Wunderground v.1.15,2014-01-28 11:34:00,
2014-01-28 06:39:00,6.5,-10.8,30.36,ENE,75,2.0,5.0,44,0.00,,,0.00,Wunderground v.1.15,2014-01-28 11:39:00,
2014-01-28 06:44:00,6.5,-11.3,30.36,ENE,75,1.0,2.0,43,0.00,,,0.00,Wunderground v.1.15,2014-01-28 11:44:00,
2014-01-28 06:50:00,6.3,-11.5,30.38,ENE,72,2.0,3.0,43,0.00,,,0.00,Wunderground v.1.15,2014-01-28 11:50:00,
2014-01-28 06:56:00,6.3,-11.5,30.38,NE,47,3.0,5.0,43,0.00,,,0.00,Wunderground v.1.15,2014-01-28 11:56:00,
2014-01-28 07:01:00,6.1,-11.7,30.37,NE,55,3.0,5.0,43,0.00,,,0.00,Wunderground v.1.15,2014-01-28 12:01:00,
2014-01-28 07:07:00,6.1,-11.2,30.37,ENE,76,2.0,5.0,44,0.00,,,0.00,Wunderground v.1.15,2014-01-28 12:07:00,
2014-01-28 07:12:00,6.1,-10.7,30.37,NE,52,1.0,2.0,45,0.00,,,0.00,Wunderground v.1.15,2014-01-28 12:12:00,
2014-01-28 07:17:00,6.1,-9.9,30.39,NE,52,0.0,2.0,47,0.00,,,0.00,Wunderground v.1.15,2014-01-28 12:17:00,
2014-01-28 07:22:00,6.1,-10.3,30.39,NE,52,0.0,2.0,46,0.00,,,0.00,Wunderground v.1.15,2014-01-28 12:22:00,
2014-01-28 07:27:00,6.0,-10.8,30.39,NE,44,1.0,2.0,45,0.00,,,0.00,Wunderground v.1.15,2014-01-28 12:27:00,
2014-01-28 07:33:00,6.0,-11.7,30.39,ENE,72,2.0,3.0,43,0.00,,,0.00,Wunderground v.1.15,2014-01-28 12:33:00,
2014-01-28 07:39:00,6.0,-11.7,30.39,ENE,72,2.0,3.0,43,0.00,,,0.00,Wunderground v.1.15,2014-01-28 12:39:00,
2014-01-28 07:44:00,6.0,-11.3,30.39,ENE,72,2.0,4.0,44,0.00,,,0.00,Wunderground v.1.15,2014-01-28 12:44:00,
2014-01-28 07:49:00,6.0,-10.8,30.39,ENE,72,2.0,6.0,45,0.00,,,0.00,Wunderground v.1.15,2014-01-28 12:49:00,
2014-01-28 07:54:00,6.0,-10.4,30.39,ENE,72,1.0,2.0,46,0.00,,,0.00,Wunderground v.1.15,2014-01-28 12:54:00,
2014-01-28 07:59:00,6.0,-10.4,30.39,ENE,72,1.0,3.0,46,0.00,,,0.00,Wunderground v.1.15,2014-01-28 12:59:00,
2014-01-28 08:05:00,6.0,-9.9,30.39,NE,38,1.0,3.0,47,0.00,,,0.00,Wunderground v.1.15,2014-01-28 13:05:00,
2014-01-28 08:11:00,6.0,-10.4,30.39,ENE,64,2.0,2.0,46,0.00,,,0.00,Wunderground v.1.15,2014-01-28 13:11:00,
2014-01-28 08:16:00,6.0,-10.4,30.40,ENE,71,2.0,3.0,46,0.00,,,0.00,Wunderground v.1.15,2014-01-28 13:16:00,
2014-01-28 08:21:00,6.0,-10.4,30.40,ENE,68,2.0,2.0,46,0.00,,,0.00,Wunderground v.1.15,2014-01-28 13:21:00,
2014-01-28 08:26:00,6.0,-10.8,30.40,ENE,66,1.0,3.0,45,0.00,,,0.00,Wunderground v.1.15,2014-01-28 13:26:00,
2014-01-28 08:32:00,6.1,-10.7,30.41,ENE,68,1.0,2.0,45,0.00,,,0.00,Wunderground v.1.15,2014-01-28 13:32:00,
2014-01-28 08:37:00,6.1,-10.7,30.41,ENE,68,1.0,2.0,45,0.00,,,0.00,Wunderground v.1.15,2014-01-28 13:37:00,
2014-01-28 08:42:00,6.1,-10.3,30.41,ENE,68,0.0,1.0,46,0.00,,,0.00,Wunderground v.1.15,2014-01-28 13:42:00,
2014-01-28 08:48:00,6.3,-11.0,30.41,ENE,68,1.0,2.0,44,0.00,,,0.00,Wunderground v.1.15,2014-01-28 13:48:00,
2014-01-28 08:53:00,6.1,-11.7,30.41,ENE,71,2.0,5.0,43,0.00,,,0.00,Wunderground v.1.15,2014-01-28 13:53:00,
2014-01-28 08:59:00,6.1,-11.7,30.41,ENE,72,2.0,5.0,43,0.00,,,0.00,Wunderground v.1.15,2014-01-28 13:59:00,
2014-01-28 09:05:00,6.1,-11.7,30.41,East,96,2.0,3.0,43,0.00,,,0.00,Wunderground v.1.15,2014-01-28 14:05:00,
2014-01-28 09:11:00,6.1,-11.7,30.41,ENE,71,3.0,3.0,43,0.00,,,0.00,Wunderground v.1.15,2014-01-28 14:11:00,
2014-01-28 09:16:00,6.1,-11.7,30.41,ENE,69,2.0,3.0,43,0.00,,,0.00,Wunderground v.1.15,2014-01-28 14:16:00,
2014-01-28 09:21:00,6.1,-11.7,30.41,NE,51,1.0,2.0,43,0.00,,,0.00,Wunderground v.1.15,2014-01-28 14:21:00,
2014-01-28 09:26:00,6.3,-11.5,30.41,ENE,73,1.0,2.0,43,0.00,,,0.00,Wunderground v.1.15,2014-01-28 14:26:00,
2014-01-28 09:32:00,6.3,-11.0,30.41,ENE,73,1.0,2.0,44,0.00,,,0.00,Wunderground v.1.15,2014-01-28 14:32:00,
2014-01-28 09:37:00,6.3,-11.0,30.41,ENE,62,2.0,6.0,44,0.00,,,0.00,Wunderground v.1.15,2014-01-28 14:37:00,
2014-01-28 09:42:00,6.3,-11.0,30.41,ENE,76,2.0,3.0,44,0.00,,,0.00,Wunderground v.1.15,2014-01-28 14:42:00,
2014-01-28 09:47:00,6.7,-10.2,30.41,SSW,205,1.0,3.0,45,0.00,,,0.00,Wunderground v.1.15,2014-01-28 14:47:00,
2014-01-28 09:53:00,7.2,-10.2,30.41,South,185,0.0,2.0,44,0.00,,,0.00,Wunderground v.1.15,2014-01-28 14:53:00,
2014-01-28 09:59:00,7.6,-10.3,30.41,East,82,0.0,2.0,43,0.00,,,0.00,Wunderground v.1.15,2014-01-28 14:59:00,
2014-01-28 10:04:00,7.6,-9.8,30.41,ENE,59,1.0,1.0,44,0.00,,,0.00,Wunderground v.1.15,2014-01-28 15:04:00,
2014-01-28 10:10:00,7.7,-10.2,30.41,ENE,58,1.0,2.0,43,0.00,,,0.00,Wunderground v.1.15,2014-01-28 15:10:00,
2014-01-28 10:15:00,7.9,-10.5,30.42,SSE,150,0.0,2.0,42,0.00,,,0.00,Wunderground v.1.15,2014-01-28 15:15:00,
2014-01-28 10:20:00,8.1,-10.3,30.42,SSW,206,0.0,0.0,42,0.00,,,0.00,Wunderground v.1.15,2014-01-28 15:20:00,
2014-01-28 10:25:00,8.3,-10.1,30.42,SSE,158,1.0,2.0,42,0.00,,,0.00,Wunderground v.1.15,2014-01-28 15:25:00,
2014-01-28 10:30:00,8.3,-10.1,30.41,SE,127,1.0,1.0,42,0.00,,,0.00,Wunderground v.1.15,2014-01-28 15:30:00,
2014-01-28 10:36:00,8.4,-10.5,30.41,East,86,1.0,3.0,41,0.00,,,0.00,Wunderground v.1.15,2014-01-28 15:36:00,
2014-01-28 10:41:00,8.4,-11.0,30.41,East,100,1.0,1.0,40,0.00,,,0.00,Wunderground v.1.15,2014-01-28 15:41:00,
2014-01-28 10:46:00,8.4,-11.5,30.41,NE,51,1.0,5.0,39,0.00,,,0.00,Wunderground v.1.15,2014-01-28 15:46:00,
2014-01-28 10:51:00,8.3,-11.1,30.41,NE,47,1.0,3.0,40,0.00,,,0.00,Wunderground v.1.15,2014-01-28 15:51:00,
2014-01-28 10:56:00,8.4,-11.0,30.41,NE,47,1.0,3.0,40,0.00,,,0.00,Wunderground v.1.15,2014-01-28 15:56:00,
2014-01-28 11:01:00,8.8,-10.1,30.40,SSW,208,1.0,1.0,41,0.00,,,0.00,Wunderground v.1.15,2014-01-28 16:01:00,
2014-01-28 11:06:00,9.3,-10.2,30.40,SSE,168,1.0,1.0,40,0.00,,,0.00,Wunderground v.1.15,2014-01-28 16:06:00,
2014-01-28 11:12:00,10.0,-10.1,30.40,SSE,155,1.0,2.0,39,0.00,,,0.00,Wunderground v.1.15,2014-01-28 16:12:00,
2014-01-28 11:17:00,10.7,-7.9,30.40,ENE,72,1.0,2.0,42,0.00,,,0.00,Wunderground v.1.15,2014-01-28 16:17:00,
2014-01-28 11:23:00,11.2,-8.5,30.40,ESE,123,1.0,1.0,40,0.00,,,0.00,Wunderground v.1.15,2014-01-28 16:23:00,
2014-01-28 11:29:00,11.6,-8.6,30.40,East,83,1.0,6.0,39,0.00,,,0.00,Wunderground v.1.15,2014-01-28 16:29:00,
2014-01-28 11:34:00,11.6,-10.3,30.39,North,11,1.0,1.0,36,0.00,,,0.00,Wunderground v.1.15,2014-01-28 16:34:00,
2014-01-28 11:39:00,11.4,-9.9,30.39,ESE,110,0.0,1.0,37,0.00,,,0.00,Wunderground v.1.15,2014-01-28 16:39:00,
2014-01-28 11:44:00,11.4,-9.3,30.39,SSE,155,0.0,3.0,38,0.00,,,0.00,Wunderground v.1.15,2014-01-28 16:44:00,
2014-01-28 11:50:00,11.6,-9.2,30.39,ESE,109,1.0,1.0,38,0.00,,,0.00,Wunderground v.1.15,2014-01-28 16:50:00,
2014-01-28 11:56:00,11.7,-10.2,30.39,North,0,0.0,1.0,36,0.00,,,0.00,Wunderground v.1.15,2014-01-28 16:56:00,
2014-01-28 12:01:00,11.2,-10.6,30.39,NNW,333,1.0,1.0,36,0.00,,,0.00,Wunderground v.1.15,2014-01-28 17:01:00,
2014-01-28 12:07:00,11.2,-10.1,30.39,SW,226,1.0,1.0,37,0.00,,,0.00,Wunderground v.1.15,2014-01-28 17:07:00,
2014-01-28 12:12:00,11.9,-10.0,30.39,ESE,109,0.0,0.0,36,0.00,,,0.00,Wunderground v.1.15,2014-01-28 17:12:00,
2014-01-28 12:17:00,12.9,-9.1,30.39,North,352,0.0,0.0,36,0.00,,,0.00,Wunderground v.1.15,2014-01-28 17:17:00,
2014-01-28 12:22:00,13.3,-8.2,30.39,East,99,0.0,0.0,37,0.00,,,0.00,Wunderground v.1.15,2014-01-28 17:22:00,
2014-01-28 12:27:00,13.1,-9.5,30.39,North,0,1.0,2.0,35,0.00,,,0.00,Wunderground v.1.15,2014-01-28 17:27:00,
2014-01-28 12:32:00,13.6,-9.6,30.37,ENE,75,1.0,2.0,34,0.00,,,0.00,Wunderground v.1.15,2014-01-28 17:32:00,
2014-01-28 12:38:00,14.1,-9.8,30.37,SE,134,0.0,2.0,33,0.00,,,0.00,Wunderground v.1.15,2014-01-28 17:38:00,
2014-01-28 12:44:00,14.0,-9.3,30.36,South,179,0.0,1.0,34,0.00,,,0.00,Wunderground v.1.15,2014-01-28 17:44:00,
2014-01-28 12:50:00,14.0,-9.9,30.36,NE,52,0.0,0.0,33,0.00,,,0.00,Wunderground v.1.15,2014-01-28 17:50:00,
2014-01-28 12:55:00,13.6,-10.2,30.36,NNE,14,0.0,2.0,33,0.00,,,0.00,Wunderground v.1.15,2014-01-28 17:55:00,
2014-01-28 13:00:00,13.5,-9.1,30.35,NNE,24,0.0,0.0,35,0.00,,,0.00,Wunderground v.1.15,2014-01-28 18:00:00,
2014-01-28 13:05:00,13.3,-9.9,30.35,SSE,165,0.0,1.0,34,0.00,,,0.00,Wunderground v.1.15,2014-01-28 18:05:00,
2014-01-28 13:11:00,13.6,-10.2,30.35,SSE,157,0.0,0.0,33,0.00,,,0.00,Wunderground v.1.15,2014-01-28 18:11:00,
2014-01-28 13:17:00,13.6,-10.2,30.36,North,3,0.0,2.0,33,0.00,,,0.00,Wunderground v.1.15,2014-01-28 18:17:00,
2014-01-28 13:22:00,13.3,-9.9,30.36,North,3,0.0,0.0,34,0.00,,,0.00,Wunderground v.1.15,2014-01-28 18:22:00,
2014-01-28 13:28:00,13.1,-9.5,30.36,North,3,0.0,0.0,35,0.00,,,0.00,Wunderground v.1.15,2014-01-28 18:28:00,
2014-01-28 13:34:00,12.6,-9.9,30.34,North,3,0.0,0.0,35,0.00,,,0.00,Wunderground v.1.15,2014-01-28 18:34:00,
2014-01-28 13:40:00,13.1,-8.9,30.34,North,3,0.0,0.0,36,0.00,,,0.00,Wunderground v.1.15,2014-01-28 18:40:00,
2014-01-28 13:45:00,13.8,-7.7,30.34,North,6,0.0,0.0,37,0.00,,,0.00,Wunderground v.1.15,2014-01-28 18:45:00,
2014-01-28 13:50:00,14.6,-8.1,30.34,East,99,0.0,0.0,35,0.00,,,0.00,Wunderground v.1.15,2014-01-28 18:50:00,
2014-01-28 13:56:00,14.8,-8.0,30.34,East,99,0.0,0.0,35,0.00,,,0.00,Wunderground v.1.15,2014-01-28 18:56:00,
2014-01-28 14:01:00,14.9,-7.3,30.34,SSE,168,0.0,3.0,36,0.00,,,0.00,Wunderground v.1.15,2014-01-28 19:01:00,
2014-01-28 14:06:00,14.9,-8.5,30.34,SSE,162,0.0,3.0,34,0.00,,,0.00,Wunderground v.1.15,2014-01-28 19:06:00,
2014-01-28 14:11:00,14.9,-8.5,30.34,SSE,161,0.0,2.0,34,0.00,,,0.00,Wunderground v.1.15,2014-01-28 19:11:00,
2014-01-28 14:17:00,14.9,-8.5,30.34,SSE,168,1.0,2.0,34,0.00,,,0.00,Wunderground v.1.15,2014-01-28 19:17:00,
2014-01-28 14:22:00,15.4,-8.0,30.34,South,171,0.0,0.0,34,0.00,,,0.00,Wunderground v.1.15,2014-01-28 19:22:00,
2014-01-28 14:28:00,16.1,-7.4,30.34,SSW,196,0.0,2.0,34,0.00,,,0.00,Wunderground v.1.15,2014-01-28 19:28:00,
2014-01-28 14:34:00,16.1,-8.0,30.32,SSW,195,1.0,1.0,33,0.00,,,0.00,Wunderground v.1.15,2014-01-28 19:34:00,
2014-01-28 14:40:00,16.2,-7.9,30.32,SE,131,1.0,1.0,33,0.00,,,0.00,Wunderground v.1.15,2014-01-28 19:40:00,
2014-01-28 14:45:00,16.1,-8.6,30.32,SSE,147,1.0,2.0,32,0.00,,,0.00,Wunderground v.1.15,2014-01-28 19:45:00,
2014-01-28 14:50:00,15.9,-8.8,30.32,SE,143,0.0,0.0,32,0.00,,,0.00,Wunderground v.1.15,2014-01-28 19:50:00,
2014-01-28 14:56:00,15.7,-7.8,30.32,SSE,155,0.0,1.0,34,0.00,,,0.00,Wunderground v.1.15,2014-01-28 19:56:00,
2014-01-28 15:01:00,15.7,-8.4,30.32,ENE,78,0.0,0.0,33,0.00,,,0.00,Wunderground v.1.15,2014-01-28 20:01:00,
2014-01-28 15:06:00,15.7,-8.4,30.32,East,86,0.0,0.0,33,0.00,,,0.00,Wunderground v.1.15,2014-01-28 20:06:00,
2014-01-28 15:12:00,15.7,-8.4,30.32,East,88,0.0,0.0,33,0.00,,,0.00,Wunderground v.1.15,2014-01-28 20:12:00,
2014-01-28 15:18:00,15.7,-7.8,30.33,SSW,195,0.0,0.0,34,0.00,,,0.00,Wunderground v.1.15,2014-01-28 20:18:00,
2014-01-28 15:24:00,15.7,-8.4,30.33,South,178,0.0,1.0,33,0.00,,,0.00,Wunderground v.1.15,2014-01-28 20:24:00,
2014-01-28 15:29:00,15.4,-8.0,30.33,SE,144,0.0,2.0,34,0.00,,,0.00,Wunderground v.1.15,2014-01-28 20:29:00,
2014-01-28 15:34:00,15.2,-8.8,30.33,SE,140,0.0,1.0,33,0.00,,,0.00,Wunderground v.1.15,2014-01-28 20:34:00,
2014-01-28 15:40:00,15.1,-7.1,30.33,South,188,0.0,0.0,36,0.00,,,0.00,Wunderground v.1.15,2014-01-28 20:40:00,
2014-01-28 15:46:00,14.9,-7.9,30.32,SSE,147,0.0,1.0,35,0.00,,,0.00,Wunderground v.1.15,2014-01-28 20:46:00,
2014-01-28 15:51:00,14.8,-8.0,30.32,South,185,0.0,1.0,35,0.00,,,0.00,Wunderground v.1.15,2014-01-28 20:51:00,
2014-01-28 15:57:00,14.8,-8.0,30.32,South,185,0.0,1.0,35,0.00,,,0.00,Wunderground v.1.15,2014-01-28 20:57:00,
2014-01-28 16:02:00,14.8,-8.6,30.32,South,185,0.0,0.0,34,0.00,,,0.00,Wunderground v.1.15,2014-01-28 21:02:00,
2014-01-28 16:08:00,14.8,-8.0,30.32,SE,138,0.0,0.0,35,0.00,,,0.00,Wunderground v.1.15,2014-01-28 21:08:00,
2014-01-28 16:14:00,14.6,-8.7,30.32,South,169,0.0,0.0,34,0.00,,,0.00,Wunderground v.1.15,2014-01-28 21:14:00,
2014-01-28 16:20:00,14.6,-8.1,30.33,SE,134,0.0,1.0,35,0.00,,,0.00,Wunderground v.1.15,2014-01-28 21:20:00,
2014-01-28 16:25:00,14.4,-8.9,30.33,SSE,157,0.0,1.0,34,0.00,,,0.00,Wunderground v.1.15,2014-01-28 21:25:00,
2014-01-28 16:30:00,14.4,-8.3,30.32,South,178,0.0,0.0,35,0.00,,,0.00,Wunderground v.1.15,2014-01-28 21:30:00,
2014-01-28 16:35:00,14.3,-8.4,30.32,South,178,0.0,0.0,35,0.00,,,0.00,Wunderground v.1.15,2014-01-28 21:35:00,
2014-01-28 16:41:00,14.3,-7.3,30.32,SW,215,0.0,0.0,37,0.00,,,0.00,Wunderground v.1.15,2014-01-28 21:41:00,
2014-01-28 16:46:00,14.1,-7.4,30.31,South,188,0.0,0.0,37,0.00,,,0.00,Wunderground v.1.15,2014-01-28 21:46:00,
2014-01-28 16:52:00,14.0,-7.5,30.31,South,181,0.0,0.0,37,0.00,,,0.00,Wunderground v.1.15,2014-01-28 21:52:00,
2014-01-28 16:57:00,13.8,-7.7,30.31,SW,216,0.0,2.0,37,0.00,,,0.00,Wunderground v.1.15,2014-01-28 21:57:00,
2014-01-28 17:02:00,13.6,-7.9,30.31,South,181,0.0,0.0,37,0.00,,,0.00,Wunderground v.1.15,2014-01-28 22:02:00,
2014-01-28 17:08:00,13.5,-7.4,30.31,South,179,0.0,1.0,38,0.00,,,0.00,Wunderground v.1.15,2014-01-28 22:08:00,
2014-01-28 17:14:00,13.3,-8.2,30.31,South,179,0.0,0.0,37,0.00,,,0.00,Wunderground v.1.15,2014-01-28 22:14:00,
2014-01-28 17:20:00,12.9,-6.9,30.31,SSE,147,0.0,0.0,40,0.00,,,0.00,Wunderground v.1.15,2014-01-28 22:20:00,
2014-01-28 17:26:00,12.9,-7.4,30.31,South,174,0.0,0.0,39,0.00,,,0.00,Wunderground v.1.15,2014-01-28 22:26:00,
2014-01-28 17:31:00,12.8,-8.1,30.31,South,174,0.0,0.0,38,0.00,,,0.00,Wunderground v.1.15,2014-01-28 22:31:00,
2014-01-28 17:36:00,12.6,-8.3,30.31,South,174,0.0,1.0,38,0.00,,,0.00,Wunderground v.1.15,2014-01-28 22:36:00,
2014-01-28 17:42:00,12.4,-7.9,30.31,South,174,0.0,0.0,39,0.00,,,0.00,Wunderground v.1.15,2014-01-28 22:42:00,
2014-01-28 17:48:00,12.3,-8.0,30.31,South,174,0.0,0.0,39,0.00,,,0.00,Wunderground v.1.15,2014-01-28 22:48:00,
2014-01-28 17:54:00,12.3,-7.5,30.31,South,175,0.0,0.0,40,0.00,,,0.00,Wunderground v.1.15,2014-01-28 22:54:00,
2014-01-28 18:00:00,12.1,-7.7,30.31,South,174,0.0,1.0,40,0.00,,,0.00,Wunderground v.1.15,2014-01-28 23:00:00,
2014-01-28 18:05:00,12.1,-7.1,30.31,South,174,0.0,1.0,41,0.00,,,0.00,Wunderground v.1.15,2014-01-28 23:05:00,
2014-01-28 18:11:00,12.1,-7.1,30.31,South,174,0.0,0.0,41,0.00,,,0.00,Wunderground v.1.15,2014-01-28 23:11:00,
2014-01-28 18:16:00,12.1,-7.7,30.30,South,174,0.0,0.0,40,0.00,,,0.00,Wunderground v.1.15,2014-01-28 23:16:00,
2014-01-28 18:21:00,12.1,-7.1,30.30,South,174,0.0,0.0,41,0.00,,,0.00,Wunderground v.1.15,2014-01-28 23:21:00,
2014-01-28 18:27:00,12.1,-7.7,30.30,South,174,0.0,0.0,40,0.00,,,0.00,Wunderground v.1.15,2014-01-28 23:27:00,
2014-01-28 18:32:00,11.9,-7.3,30.31,South,176,0.0,1.0,41,0.00,,,0.00,Wunderground v.1.15,2014-01-28 23:32:00,
2014-01-28 18:37:00,11.9,-7.3,30.31,South,176,0.0,1.0,41,0.00,,,0.00,Wunderground v.1.15,2014-01-28 23:37:00,
2014-01-28 18:42:00,11.9,-7.3,30.31,South,176,0.0,0.0,41,0.00,,,0.00,Wunderground v.1.15,2014-01-28 23:42:00,
2014-01-28 18:48:00,11.9,-7.3,30.30,South,176,0.0,2.0,41,0.00,,,0.00,Wunderground v.1.15,2014-01-28 23:48:00,
2014-01-28 18:54:00,11.9,-7.3,30.30,South,176,0.0,0.0,41,0.00,,,0.00,Wunderground v.1.15,2014-01-28 23:54:00,
2014-01-28 18:59:00,11.9,-6.8,30.30,South,176,0.0,1.0,42,0.00,,,0.00,Wunderground v.1.15,2014-01-28 23:59:00,
2014-01-28 19:05:00,11.9,-6.8,30.30,South,176,0.0,0.0,42,0.00,,,0.00,Wunderground v.1.15,2014-01-29 00:05:00,
2014-01-28 19:11:00,11.9,-6.3,30.30,South,176,0.0,0.0,43,0.00,,,0.00,Wunderground v.1.15,2014-01-29 00:11:00,
2014-01-28 19:16:00,11.9,-6.8,30.29,South,175,0.0,0.0,42,0.00,,,0.00,Wunderground v.1.15,2014-01-29 00:16:00,
2014-01-28 19:21:00,11.9,-6.8,30.29,South,175,0.0,2.0,42,0.00,,,0.00,Wunderground v.1.15,2014-01-29 00:21:00,
2014-01-28 19:26:00,11.9,-6.8,30.29,South,175,0.0,2.0,42,0.00,,,0.00,Wunderground v.1.15,2014-01-29 00:26:00,
2014-01-28 19:29:00,11.9,-7.3,30.29,SSE,167,0.0,2.0,41,0.00,,,0.00,Wunderground v.1.15,2014-01-29 00:29:00,
2014-01-28 19:34:00,11.9,-6.8,30.29,SSE,168,0.0,0.0,42,0.00,,,0.00,Wunderground v.1.15,2014-01-29 00:34:00,
2014-01-28 19:40:00,11.9,-6.8,30.29,SSE,168,0.0,0.0,42,0.00,,,0.00,Wunderground v.1.15,2014-01-29 00:40:00,
2014-01-28 19:45:00,11.9,-6.8,30.28,SSW,202,0.0,0.0,42,0.00,,,0.00,Wunderground v.1.15,2014-01-29 00:45:00,
2014-01-28 19:50:00,11.9,-6.8,30.28,SSW,202,0.0,0.0,42,0.00,,,0.00,Wunderground v.1.15,2014-01-29 00:50:00,
2014-01-28 19:56:00,11.9,-5.9,30.28,SSW,202,0.0,0.0,44,0.00,,,0.00,Wunderground v.1.15,2014-01-29 00:56:00,
2014-01-28 20:02:00,11.9,-6.3,30.28,SSW,202,0.0,0.0,43,0.00,,,0.00,Wunderground v.1.15,2014-01-29 01:02:00,
2014-01-28 20:07:00,11.9,-6.8,30.28,SSW,202,0.0,0.0,42,0.00,,,0.00,Wunderground v.1.15,2014-01-29 01:07:00,
2014-01-28 20:14:00,11.9,-6.3,30.28,SSW,202,0.0,1.0,43,0.00,,,0.00,Wunderground v.1.15,2014-01-29 01:14:00,
2014-01-28 20:19:00,11.9,-6.8,30.27,SSW,202,0.0,1.0,42,0.00,,,0.00,Wunderground v.1.15,2014-01-29 01:19:00,
2014-01-28 20:25:00,11.9,-6.3,30.27,SSW,202,0.0,0.0,43,0.00,,,0.00,Wunderground v.1.15,2014-01-29 01:25:00,
2014-01-28 20:30:00,11.9,-6.8,30.27,SSW,202,0.0,0.0,42,0.00,,,0.00,Wunderground v.1.15,2014-01-29 01:30:00,
2014-01-28 20:36:00,11.7,-7.5,30.27,SSW,202,0.0,0.0,41,0.00,,,0.00,Wunderground v.1.15,2014-01-29 01:36:00,
2014-01-28 20:41:00,11.7,-7.0,30.27,SSW,202,0.0,0.0,42,0.00,,,0.00,Wunderground v.1.15,2014-01-29 01:41:00,
2014-01-28 20:46:00,11.7,-7.0,30.27,SSW,202,0.0,0.0,42,0.00,,,0.00,Wunderground v.1.15,2014-01-29 01:46:00,
2014-01-28 20:52:00,11.7,-7.0,30.27,SSW,202,0.0,0.0,42,0.00,,,0.00,Wunderground v.1.15,2014-01-29 01:52:00,
2014-01-28 20:58:00,11.7,-7.0,30.27,SSW,202,0.0,0.0,42,0.00,,,0.00,Wunderground v.1.15,2014-01-29 01:58:00,
2014-01-28 21:03:00,11.7,-7.0,30.27,SSW,202,0.0,0.0,42,0.00,,,0.00,Wunderground v.1.15,2014-01-29 02:03:00,
2014-01-28 21:09:00,11.7,-7.5,30.27,SSW,203,0.0,0.0,41,0.00,,,0.00,Wunderground v.1.15,2014-01-29 02:09:00,
2014-01-28 21:14:00,11.7,-7.0,30.27,SSW,202,0.0,0.0,42,0.00,,,0.00,Wunderground v.1.15,2014-01-29 02:14:00,
2014-01-28 21:19:00,11.7,-7.5,30.26,SSW,202,0.0,0.0,41,0.00,,,0.00,Wunderground v.1.15,2014-01-29 02:19:00,
2014-01-28 21:24:00,11.7,-7.5,30.26,SSW,202,0.0,0.0,41,0.00,,,0.00,Wunderground v.1.15,2014-01-29 02:24:00,
2014-01-28 21:30:00,11.7,-7.0,30.26,SSW,202,0.0,0.0,42,0.00,,,0.00,Wunderground v.1.15,2014-01-29 02:30:00,
2014-01-28 21:35:00,11.7,-7.5,30.26,SSW,202,0.0,0.0,41,0.00,,,0.00,Wunderground v.1.15,2014-01-29 02:35:00,
2014-01-28 21:40:00,11.6,-8.1,30.26,SSW,202,0.0,0.0,40,0.00,,,0.00,Wunderground v.1.15,2014-01-29 02:40:00,
2014-01-28 21:45:00,11.6,-7.6,30.26,SSW,202,0.0,0.0,41,0.00,,,0.00,Wunderground v.1.15,2014-01-29 02:45:00,
2014-01-28 21:51:00,11.6,-7.6,30.26,SSW,202,0.0,0.0,41,0.00,,,0.00,Wunderground v.1.15,2014-01-29 02:51:00,
2014-01-28 21:56:00,11.6,-7.1,30.26,SSW,202,0.0,0.0,42,0.00,,,0.00,Wunderground v.1.15,2014-01-29 02:56:00,
2014-01-28 22:01:00,11.6,-7.1,30.26,SSW,202,0.0,0.0,42,0.00,,,0.00,Wunderground v.1.15,2014-01-29 03:01:00,
2014-01-28 22:07:00,11.6,-6.1,30.26,SSW,202,0.0,0.0,44,0.00,,,0.00,Wunderground v.1.15,2014-01-29 03:07:00,
2014-01-28 22:12:00,11.6,-4.8,30.26,SSW,202,0.0,0.0,47,0.00,,,0.00,Wunderground v.1.15,2014-01-29 03:12:00,
2014-01-28 22:17:00,11.4,-2.4,30.26,SSW,202,0.0,0.0,53,0.00,,,0.00,Wunderground v.1.15,2014-01-29 03:17:00,
2014-01-28 22:22:00,11.2,-1.8,30.26,SSW,202,0.0,0.0,55,0.00,,,0.00,Wunderground v.1.15,2014-01-29 03:22:00,
2014-01-28 22:28:00,11.1,-1.2,30.26,SSW,202,0.0,0.0,57,0.00,,,0.00,Wunderground v.1.15,2014-01-29 03:28:00,
2014-01-28 22:33:00,11.1,-0.5,30.26,SSW,203,0.0,0.0,59,0.00,,,0.00,Wunderground v.1.15,2014-01-29 03:33:00,
2014-01-28 22:39:00,10.9,-0.3,30.26,SSW,202,0.0,0.0,60,0.00,,,0.00,Wunderground v.1.15,2014-01-29 03:39:00,
2014-01-28 22:45:00,10.9,0.8,30.26,SSW,202,0.0,0.0,63,0.00,,,0.00,Wunderground v.1.15,2014-01-29 03:45:00,
2014-01-28 22:50:00,10.7,1.2,30.26,SSW,202,0.0,0.0,65,0.00,,,0.00,Wunderground v.1.15,2014-01-29 03:50:00,
2014-01-28 22:55:00,10.5,1.4,30.26,SSW,202,0.0,0.0,66,0.00,,,0.00,Wunderground v.1.15,2014-01-29 03:55:00,
2014-01-28 23:00:00,10.4,1.9,30.26,SSW,202,0.0,0.0,68,0.00,,,0.00,Wunderground v.1.15,2014-01-29 04:00:00,
2014-01-28 23:05:00,10.2,1.7,30.26,SSW,202,0.0,0.0,68,0.00,,,0.00,Wunderground v.1.15,2014-01-29 04:05:00,
2014-01-28 23:11:00,10.2,2.0,30.26,SSW,203,0.0,0.0,69,0.00,,,0.00,Wunderground v.1.15,2014-01-29 04:11:00,
2014-01-28 23:17:00,10.0,1.9,30.25,SSW,202,0.0,0.0,69,0.00,,,0.00,Wunderground v.1.15,2014-01-29 04:17:00,
2014-01-28 23:23:00,10.0,2.2,30.25,SSW,202,0.0,0.0,70,0.00,,,0.00,Wunderground v.1.15,2014-01-29 04:23:00,
2014-01-28 23:29:00,10.0,2.5,30.25,SSW,202,0.0,0.0,71,0.00,,,0.00,Wunderground v.1.15,2014-01-29 04:29:00,
2014-01-28 23:34:00,10.0,2.5,30.25,SSW,202,0.0,0.0,71,0.00,,,0.00,Wunderground v.1.15,2014-01-29 04:34:00,
2014-01-28 23:40:00,10.0,2.5,30.25,SSW,202,0.0,0.0,71,0.00,,,0.00,Wunderground v.1.15,2014-01-29 04:40:00,
2014-01-28 23:45:00,10.0,2.5,30.24,SSW,202,0.0,0.0,71,0.00,,,0.00,Wunderground v.1.15,2014-01-29 04:45:00,
2014-01-28 23:50:00,9.9,2.4,30.24,SSW,202,0.0,0.0,71,0.00,,,0.00,Wunderground v.1.15,2014-01-29 04:50:00,
2014-01-28 23:55:00,9.9,2.7,30.24,SSW,202,0.0,0.0,72,0.00,,,0.00,Wunderground v.1.15,2014-01-29 04:55:00,